Historical Weather Data
Okotoks
Hwy 2A and Milligan Dr

Date
ET inches
Rain inches
Temperature °C
Humidity
Avg
Wind kmh
Avg
Solar Wm2
Avg
High
Avg
Low
01/01/2022 0.00 0.00 -3.9 -17.6 -29.9 69 0.0 40
01/02/2022 0.01 0.00 2.1 -4.3 -15.1 55 0.0 56
01/03/2022 0.00 0.00 -15.0 -20.8 -25.5 83 0.0 22
01/04/2022 0.00 0.00 -23.1 -26.7 -31.4 69 0.0 62
01/05/2022 0.00 0.00 -22.7 -28.4 -34.9 73 0.0 40
01/06/2022 0.00 0.00 -23.4 -28.3 -36.0 76 0.0 35
01/07/2022 0.00 0.00 -21.3 -23.8 -26.9 78 0.0 37
01/08/2022 0.00 0.00 -16.2 -23.0 -28.6 72 0.0 37
01/09/2022 0.01 0.00 -4.3 -16.2 -25.1 73 0.0 53
01/10/2022 0.01 0.00 9.3 0.2 -5.7 52 0.0 35
01/11/2022 0.02 0.00 9.1 2.2 -6.6 51 0.0 53
01/12/2022 0.01 0.00 6.6 1.4 -3.1 64 0.0 19
01/13/2022 0.01 0.00 5.7 -0.7 -6.6 83 0.0 39
01/14/2022 0.01 0.00 1.3 -0.7 -3.4 83 0.0 52
01/15/2022 0.01 0.00 7.5 1.3 -5.6 57 0.0 47
01/16/2022 0.01 0.00 2.8 -2.9 -9.8 69 0.0 57
01/17/2022 0.02 0.00 13.3 1.2 -11.1 62 0.0 72
01/18/2022 0.00 0.00 -11.0 -17.5 -25.9 76 0.0 44
01/19/2022 0.01 0.00 -14.1 -21.8 -28.7 79 0.0 77
01/20/2022 0.01 0.00 9.0 -1.0 -17.7 62 0.0 44
01/21/2022 0.01 0.00 5.1 -0.5 -8.0 68 0.0 62
01/22/2022 0.02 0.00 11.0 2.9 -3.9 58 0.0 69
01/23/2022 0.02 0.00 11.3 4.2 -4.8 43 0.0 60
01/24/2022 0.01 0.00 1.8 -1.1 -5.4 76 0.0 39
01/25/2022 0.02 0.00 6.6 -2.1 -11.1 64 0.0 57
01/26/2022 0.02 0.00 4.1 -1.7 -8.4 53 0.0 45
01/27/2022 0.02 0.00 5.8 -5.4 -13.3 61 0.0 80
01/28/2022 0.02 0.00 7.7 -0.1 -6.9 38 0.0 56
01/29/2022 0.02 0.00 6.0 0.1 -5.8 42 0.0 49
01/30/2022 0.02 0.00 9.2 1.2 -3.6 55 0.0 50
01/31/2022 0.01 0.00 2.5 -7.7 -16.8 64 0.0 40
02/01/2022 0.01 0.00 -16.6 -19.5 -24.3 79 0.0 64
02/02/2022 0.01 0.00 -18.5 -24.3 -31.8 76 0.0 74
02/03/2022 0.01 0.00 -10.1 -15.5 -22.0 77 0.0 85
02/04/2022 0.02 0.00 6.9 -6.4 -19.5 67 0.0 34
02/05/2022 0.03 0.00 6.5 1.2 -8.8 51 0.0 59
02/06/2022 0.03 0.00 11.4 3.4 -9.3 45 0.0 77
02/07/2022 0.03 0.00 9.1 5.5 -0.7 33 0.0 100
02/08/2022 0.02 0.00 9.3 1.8 -4.4 48 0.0 53
02/09/2022 0.04 0.00 13.6 5.4 -3.7 51 0.0 99
02/10/2022 0.03 0.00 13.3 7.7 -0.5 39 0.0 76
02/11/2022 0.03 0.00 2.9 -1.6 -8.4 57 0.0 110
02/12/2022 0.03 0.00 7.0 -0.4 -7.6 49 0.0 105
02/13/2022 0.03 0.00 9.4 2.6 -2.0 51 0.0 100
02/14/2022 0.01 0.00 -1.6 -3.0 -4.5 87 0.0 38
02/15/2022 0.03 0.00 0.7 -3.1 -8.0 82 0.0 83
02/16/2022 0.02 0.00 -2.9 -9.1 -18.8 83 0.0 92
02/17/2022 0.03 0.00 8.2 -1.1 -13.6 66 0.0 82
02/18/2022 0.01 0.00 -1.0 -7.1 -10.0 93 0.0 43
02/19/2022 0.03 0.00 7.9 1.1 -9.1 73 0.0 48
02/20/2022 0.01 0.00 -7.2 -16.2 -20.6 80 0.0 104
02/21/2022 0.01 0.00 -18.3 -21.9 -29.2 77 0.0 137
02/22/2022 0.02 0.00 -12.6 -25.9 -32.5 68 0.0 139
02/23/2022 0.02 0.00 -12.0 -22.4 -34.0 66 0.0 148
02/24/2022 0.02 0.00 -5.2 -8.3 -12.4 83 0.0 116
02/25/2022 0.04 0.00 5.1 -9.5 -19.0 65 0.0 139
02/26/2022 0.04 0.00 7.6 -2.8 -13.4 53 0.0 115
02/27/2022 0.05 0.00 9.2 2.4 -2.6 48 0.0 114
02/28/2022 0.03 0.00 8.5 -1.1 -7.1 68 0.0 93
03/01/2022 0.05 0.00 12.0 -0.4 -8.3 81 0.0 130
03/02/2022 0.01 0.00 -5.5 -6.7 -7.6 97 0.0 33
03/03/2022 0.01 0.00 -5.1 -7.8 -9.3 96 0.0 37
03/04/2022 0.01 0.00 -4.3 -8.3 -10.0 90 0.0 43
03/05/2022 0.03 0.00 3.0 -6.7 -13.1 83 0.0 92
03/06/2022 0.04 0.00 3.0 -5.6 -10.4 76 0.0 163
03/07/2022 0.03 0.00 3.7 -2.0 -8.3 60 0.0 105
03/08/2022 0.03 0.00 -7.1 -10.3 -15.5 67 0.0 132
03/09/2022 0.03 0.00 -7.9 -14.7 -20.3 70 0.0 168
03/10/2022 0.04 0.00 -3.6 -10.3 -17.6 57 0.0 162
03/11/2022 0.03 0.00 -0.2 -9.8 -19.4 76 0.0 146
03/12/2022 0.07 0.00 12.3 1.7 -6.5 54 0.0 177
03/13/2022 0.05 0.00 4.1 -0.5 -3.5 77 0.0 149
03/14/2022 0.06 0.00 10.8 2.8 -4.1 70 0.0 146
03/15/2022 0.06 0.00 10.9 4.2 -0.8 59 0.0 143
03/16/2022 0.07 0.00 8.7 2.2 -3.6 49 0.0 168
03/17/2022 0.07 0.00 12.6 2.0 -6.7 52 0.0 163
03/18/2022 0.06 0.00 10.3 2.9 -4.3 51 0.0 165
03/19/2022 0.07 0.00 12.0 2.9 -4.5 53 0.0 168
03/20/2022 0.05 0.00 7.2 0.4 -5.9 62 0.0 137
03/21/2022 0.08 0.00 10.5 0.7 -8.9 50 0.0 199
03/22/2022 0.08 0.00 15.7 4.9 -4.4 49 0.0 176
03/23/2022 0.04 0.00 18.7 6.8 -1.5 53 0.0 78
03/24/2022 0.06 0.00 7.0 0.4 -5.5 66 0.0 168
03/25/2022 0.05 0.00 9.1 0.1 -7.0 66 0.0 140
03/26/2022 0.05 0.00 7.2 -0.2 -7.0 66 0.0 134
03/27/2022 0.08 0.00 15.0 4.8 -5.0 57 0.0 179
03/28/2022 0.05 0.00 4.7 0.3 -2.7 78 0.0 154
03/29/2022 0.08 0.00 11.4 1.5 -7.0 63 0.0 220
03/30/2022 0.08 0.00 17.3 4.8 -6.5 52 0.0 166
03/31/2022 0.06 0.00 8.1 2.9 -2.5 47 0.0 138
04/01/2022 0.09 0.00 10.6 2.0 -6.1 46 0.0 215
04/02/2022 0.05 0.00 11.2 1.5 -5.4 61 0.0 109
04/03/2022 0.04 0.00 10.1 -0.4 -9.6 65 0.0 81
04/04/2022 0.09 0.00 13.5 5.9 -1.2 37 0.0 177
04/05/2022 0.11 0.00 10.9 5.1 -2.8 24 0.0 241
04/06/2022 0.09 0.00 10.2 1.1 -8.3 41 0.0 205
04/07/2022 0.11 0.00 17.6 4.8 -9.0 42 0.0 237
04/08/2022 0.12 0.00 21.3 11.8 2.5 31 0.0 215
04/09/2022 0.05 0.00 8.4 2.0 -4.0 57 0.0 120
04/10/2022 0.07 0.00 3.2 -1.6 -6.9 41 0.0 182
04/11/2022 0.07 0.00 -0.5 -5.6 -10.9 44 0.0 235
04/12/2022 0.04 0.00 -7.7 -9.6 -11.6 76 0.0 192
04/13/2022 0.05 0.00 -6.0 -9.4 -11.5 78 0.0 212
04/14/2022 0.04 0.00 -5.8 -8.8 -12.1 82 0.0 188
04/15/2022 0.07 0.00 2.5 -6.3 -12.1 71 0.0 238
04/16/2022 0.08 0.00 5.1 -4.5 -15.1 64 0.0 252
04/17/2022 0.08 0.00 6.2 -1.9 -9.2 64 0.0 217
04/18/2022 0.09 0.00 9.0 1.1 -9.9 51 0.0 215
04/19/2022 0.02 0.00 4.8 0.5 -2.1 75 0.0 49
04/20/2022 0.07 0.00 4.8 -0.7 -3.5 69 0.0 203
04/21/2022 0.09 0.00 9.8 1.7 -6.4 64 0.0 246
04/22/2022 0.03 0.00 4.2 1.1 -1.2 85 0.0 90
04/23/2022 0.12 0.00 11.9 4.5 -4.6 59 0.0 278
04/24/2022 0.13 0.00 17.0 7.0 -4.5 43 0.0 275
04/25/2022 0.10 0.00 16.7 7.8 -3.7 40 0.0 201
04/26/2022 0.08 0.00 15.4 9.5 3.0 45 0.0 141
04/27/2022 0.12 0.06 10.7 5.0 -3.5 46 5.2 213
04/28/2022 0.14 0.00 12.9 3.9 -7.9 37 7.5 273
04/29/2022 0.14 0.00 14.1 5.8 -1.5 39 8.2 258
04/30/2022 0.13 0.00 13.1 5.5 -6.1 55 7.5 228
05/01/2022 0.13 0.00 14.1 8.5 0.8 51 11.0 192
05/02/2022 0.14 0.00 17.4 9.0 -2.7 46 5.5 227
05/03/2022 0.16 0.00 19.1 9.9 -0.1 50 7.2 244
05/04/2022 0.09 0.00 20.5 10.4 2.3 45 6.4 91
05/05/2022 0.14 0.00 19.7 13.3 8.0 44 15.0 113
05/06/2022 0.22 0.00 16.8 11.1 2.7 31 13.5 304
05/07/2022 0.13 0.30 14.2 6.4 -2.0 52 8.7 226
05/08/2022 0.10 0.02 11.2 3.8 -1.4 77 10.3 237
05/09/2022 0.10 0.21 7.2 2.4 -1.2 81 6.6 261
05/10/2022 0.08 0.01 12.7 3.7 -0.6 80 7.4 187
05/11/2022 0.13 0.00 14.9 5.9 -4.0 54 4.7 245
05/12/2022 0.18 0.00 16.1 7.1 -4.0 42 10.9 280
05/13/2022 0.12 0.00 14.4 5.6 -4.3 54 8.5 215
05/14/2022 0.19 0.00 16.7 8.6 -1.8 37 9.8 319
05/15/2022 0.19 0.00 20.0 10.7 -1.7 40 8.0 312
05/16/2022 0.20 0.00 21.6 12.8 1.4 44 9.5 286
05/17/2022 0.11 0.10 14.5 8.1 2.2 64 11.9 173
05/18/2022 0.17 0.01 15.7 6.4 -1.9 60 15.0 297
05/19/2022 0.07 0.19 8.4 3.8 0.0 74 22.7 123
05/20/2022 0.10 0.06 7.8 3.8 0.7 69 17.8 192
05/21/2022 0.11 0.00 11.3 4.7 -1.5 50 6.9 214
05/22/2022 0.17 0.00 16.9 7.1 -5.2 45 6.9 311
05/23/2022 0.18 0.00 19.5 10.4 -1.5 36 6.2 282
05/24/2022 0.18 0.03 18.5 11.2 3.6 42 11.6 256
05/25/2022 0.19 0.00 20.0 11.7 3.0 43 8.8 266
05/26/2022 0.19 0.00 20.2 11.5 -0.7 41 6.6 305
05/27/2022 0.19 0.00 21.1 14.2 6.9 42 10.8 240
05/28/2022 0.21 0.00 20.3 13.3 5.0 32 8.2 310
05/29/2022 0.16 0.00 15.0 11.1 6.8 41 16.3 178
05/30/2022 0.12 0.00 15.1 9.2 4.6 57 18.5 157
05/31/2022 0.15 0.00 17.3 9.1 -2.4 46 5.3 276
06/01/2022 0.16 0.00 19.9 11.3 2.4 43 6.1 248
06/02/2022 0.21 0.00 20.7 11.6 -0.7 44 9.3 293
06/03/2022 0.23 0.00 21.3 13.0 0.5 38 11.5 287
06/04/2022 0.13 0.01 21.4 13.3 5.2 64 7.3 172
06/05/2022 0.07 0.28 18.0 11.4 8.0 90 7.8 134
06/06/2022 0.08 0.47 17.5 10.5 8.7 89 7.8 135
06/07/2022 0.13 0.28 18.5 11.5 7.8 73 11.1 217
06/08/2022 0.18 0.00 21.1 13.0 4.5 58 9.3 264
06/09/2022 0.23 0.00 22.5 15.3 6.6 43 10.7 308
06/10/2022 0.26 0.00 23.8 17.2 7.6 39 9.0 364
06/11/2022 0.19 0.03 22.3 15.0 7.7 50 7.0 285
06/12/2022 0.16 0.02 20.8 12.0 4.4 63 7.2 252
06/13/2022 0.03 1.71 11.8 9.1 8.1 93 11.8 43
06/14/2022 0.07 1.29 11.8 8.6 6.4 86 30.9 143
06/15/2022 0.16 0.00 15.6 12.2 8.2 64 31.0 218
06/16/2022 0.15 0.18 18.4 12.9 5.9 69 9.7 215
06/17/2022 0.13 0.10 20.6 15.2 11.0 79 6.7 225
06/18/2022 0.16 0.23 23.4 15.4 10.3 80 6.2 269
06/19/2022 0.14 0.02 20.9 13.3 8.9 76 8.7 221
06/20/2022 0.12 0.01 18.4 12.6 6.2 72 12.3 192
06/21/2022 0.20 0.00 23.4 15.0 4.9 57 6.4 311
06/22/2022 0.24 0.04 24.1 16.5 9.9 55 9.8 347
06/23/2022 0.12 0.09 15.1 10.8 3.7 70 10.7 221
06/24/2022 0.11 0.17 13.8 9.0 4.1 70 17.5 210
06/25/2022 0.21 0.00 19.4 12.6 3.5 56 7.9 361
06/26/2022 0.23 0.00 24.1 15.1 3.2 50 5.0 366
06/27/2022 0.23 0.00 25.3 16.5 5.4 56 7.8 350
06/28/2022 0.18 0.14 22.8 15.6 7.2 75 9.9 284
06/29/2022 0.16 0.05 19.7 13.7 8.8 69 8.2 260
06/30/2022 0.17 0.03 22.4 15.2 8.5 61 5.1 296
07/01/2022 0.14 0.30 23.7 14.9 8.7 69 4.9 227
07/02/2022 0.08 0.36 17.7 12.6 7.2 85 6.1 142
07/03/2022 0.05 0.10 13.0 10.9 9.4 88 2.6 77
07/04/2022 0.05 0.38 15.1 11.5 9.8 95 4.6 94